Regional Weather Roundup
Issued by NWS Newport/Morehead, NC

Current Version | Previous Version | Graphics & Text | Print | Product List | Glossary Off
Versions: 1 2 3 4 5 6 7 8 9 10 11 12 13 14 15 16 17 18 19 20 21 22 23 24 25 26 27 28 29 30 31 32 33 34 35 36 37 38 39 40 41 42 43 44 45 46 47 48 49 50

000
ASUS42 KMHX 231722
RWRMHX
WEATHER ROUNDUP FOR EASTERN NORTH CAROLINA
NATIONAL WEATHER SERVICE NEWPORT/MOREHEAD CITY NC
1200 PM EST SUN NOV 23 2014

NOTE: "FAIR" INDICATES FEW OR NO CLOUDS BELOW 12,000 FEET
WITH NO SIGNIFICANT WEATHER AND/OR OBSTRUCTIONS TO VISIBILITY

NCZ015>017-031-032-045>047-102-103-231800-
NORTH COAST

CITY           SKY/WX    TMP DP  RH WIND       PRES   REMARKS
EDENTON        CLOUDY    57  48  72 SE5       30.19F
ELIZABETH CITY CLOUDY    61  48  62 SE7       30.21F
KITTY HAWK     CLOUDY    63  51  65 SE5       30.22F
MANTEO         CLOUDY    54  50  85 SW3       30.21F

$$

NCZ045>047-081-094-103-104-231800-
CENTRAL COAST

CITY           SKY/WX    TMP DP  RH WIND       PRES   REMARKS
FRISCO         LGT RAIN  63  58  83 S5        30.22F
SWANQUARTER      N/A     61 N/A N/A NE3       30.15F

$$

NCZ095-097-098-100-101-231800-
SOUTHERN COAST

CITY           SKY/WX    TMP DP  RH WIND       PRES   REMARKS
BEAUFORT       LGT RAIN  63  57  81 SE6       30.18F
CEDAR ISLAND     N/A     59 N/A N/A SE5       30.21F
JACKSONVILLE   LGT RAIN  54  52  93 NE3       30.17F FOG
PINEY ISLAND   LGT RAIN  61  56  83 E3        30.19F
WILMINGTON     LGT RAIN  62  61  96 E7        30.14F FOG


$$

NCZ011>013-027>030-043-044-078>080-089-090>093-098-231800-
COASTAL PLAIN

CITY           SKY/WX    TMP DP  RH WIND       PRES   REMARKS
AHOSKIE        CLOUDY    56  45  66 S5        30.17F
CLINTON        LGT RAIN  53  52  97 E6        30.14F
ELIZABETHTOWN  RAIN      55  55 100 E3        30.12F
GOLDSBORO      LGT RAIN  52  52 100 CALM      30.14F
GREENVILLE     DRIZZLE   55  45  67 CALM      30.19F
HAVELOCK       LGT RAIN  58  56  93 E3        30.19F
KENANSVILLE    CLOUDY    54  52  94 CALM      30.15F
KINSTON        LGT RAIN  52  48  87 E5        30.17F
NEW BERN       LGT RAIN  57  53  86 CALM      30.20F
RICHLANDS      CLOUDY    54  50  87 NE7       30.15F
ROCKY MOUNT    CLOUDY    52  42  69 CALM      30.17F
WASHINGTON     CLOUDY    57  50  77 SE5       30.17F
WHITEVILLE     LGT RAIN  58  57  94 E6        30.11F

$$

AMZ130-135-150-152-154-156-158-170-250-252-270-ANZ085-086-088-633-658-670-231800-
MARINE OBSERVATIONS

STATION/POSITION TIME  TEMP    WIND        PRES    WAVE   SWELL
                       AIR SEA DIR/SP/G            HT/PER HT/PER
                 (UTC) (F)     (DEG/KT/KT) (MB)    (FT/S) (FT/S)
CHESAPEAKE LIGHT 1700   56     150/  9/  9 1023.7
64 E VA BEACH    1700   64 64  170/ 12/ 14 1023.4    2/ 8   2/ 8
DUCK             1700   61 55  150/  7/  8 1022.3
2 E DUCK         1700      56                N/A     1/ 8
10 NE DUCK       1700      58                N/A     2/ 9
OREGON INLET     1700   62 49  120/  3/  4 1023.5
13E OREGON INLT  1700      61                N/A     2/ 8
HATTERAS CG      1700   64 53  150/  5/  7 1023.4
DIAMOND BUOY     1700   70     150/ 12/ 14 1023.6    3/ 8   2/ 8
17 S OCRACOKE    NOT AVBL
CAPE LOOKOUT     1700   63     150/ 10/ 11 1021.8
BEAUFORT LAB     1700   61 53  130/  5/  6 1020.9
30 SE NEW RIVER  1700   69 69  150/ 17/ 21 1020.9    4/ 5   2/ 8
5 SE WRIGHTSVLE  1700   59 60  150/ 12/ 12 1020.9
225 S CAPE HAT   1633   72 73  140/ 16/ 19 1023.3    5/ 8   2/ 8
41 SE CHARLESTON 1700   69 75  110/ 31/ 39 1014.4    8/ 7   2/15

$$



USA.gov is the U.S. government's official web portal to all federal, state and local government web resources and services.